GW0664 Weather Reports


time (UTC)temp
C
wind
direction
speed
KPH
gust
KPH
rain 1hr
cm
rain 24hr
cm
rain mn
cm
humidity
%
barometer
mb
20260505093048 2 345 6.4 8.0 0.00 0.00 0.00 54 1018.1
20260505091546 2 345 3.2 6.4 0.00 0.00 0.00 54 1018.1
20260505090047 2 345 3.2 8.0 0.00 0.00 0.00 53 1018.0
20260505084550 2 345 8.0 12.9 0.00 0.00 0.00 53 1018.0
20260505083039 3 100 0.0 4.8 0.00 0.00 0.00 53 1017.9
20260505081548 3 100 1.6 4.8 0.00 0.00 0.00 53 1018.0
20260505080052 3 100 3.2 9.7 0.00 0.00 0.00 53 1017.9
20260505074549 3 96 3.2 9.7 0.00 0.00 0.00 54 1018.0
20260505073100 3 107 4.8 6.4 0.00 0.00 0.00 54 1018.1
20260505071541 3 106 1.6 4.8 0.00 0.00 0.00 52 1018.0
20260505070042 3 0 0.0 3.2 0.00 0.00 0.00 53 1017.9
20260505064547 3 107 3.2 6.4 0.00 0.00 0.00 50 1017.9
20260505063046 4 106 1.6 4.8 0.00 0.00 0.00 52 1017.8
20260505061550 4 106 3.2 6.4 0.00 0.00 0.00 52 1017.7
20260505060042 4 106 3.2 9.7 0.00 0.00 0.00 51 1017.4
20260505054559 4 106 3.2 6.4 0.00 0.00 0.00 51 1017.1
20260505053101 4 105 4.8 9.7 0.00 0.00 0.00 51 1017.0
20260505051546 4 104 6.4 9.7 0.00 0.00 0.00 50 1017.3
20260505041555 4 106 11.3 16.1 0.00 0.00 0.00 47 1016.9
20260505040050 5 92 12.9 17.7 0.00 0.00 0.00 46 1016.7
20260505034545 5 83 11.3 17.7 0.00 0.00 0.00 42 1016.6
20260505033040 6 79 17.7 33.8 0.00 0.00 0.00 39 1016.5
20260505031551 6 345 17.7 25.7 0.00 0.00 0.00 36 1016.0
20260505030049 7 345 19.3 27.4 0.00 0.00 0.00 34 1016.0
20260505024545 8 345 20.9 30.6 0.00 0.00 0.00 32 1015.8
20260505023049 8 345 25.7 38.6 0.00 0.00 0.00 29 1015.7
20260505021542 9 345 22.5 35.4 0.00 0.00 0.00 27 1015.6
20260505020041 10 345 27.4 46.7 0.00 0.00 0.00 25 1015.5
20260505014540 11 345 33.8 41.8 0.00 0.00 0.00 22 1015.2
20260505013104 11 345 32.2 38.6 0.00 0.00 0.00 21 1015.2
20260505011547 11 345 35.4 46.7 0.00 0.00 0.00 22 1015.2
20260505010046 11 345 33.8 46.7 0.00 0.00 0.00 23 1015.2
20260505004555 12 345 37.0 49.9 0.00 0.00 0.00 22 1015.2
20260505003047 12 345 32.2 51.5 0.00 0.00 0.00 23 1015.2
20260505001551 12 345 27.4 51.5 0.00 0.00 0.00 24 1015.1
20260505000056 12 345 37.0 49.9 0.00 0.00 0.00 23 1015.2
20260504234544 12 345 35.4 49.9 0.00 0.00 0.00 23 1015.2
20260504233043 12 16 40.2 51.5 0.00 0.00 0.00 24 1015.3
20260504231539 12 345 29.0 40.2 0.00 0.00 0.00 26 1015.3
20260504230055 11 345 35.4 43.5 0.00 0.00 0.00 30 1015.5
20260504224546 11 345 30.6 45.1 0.00 0.00 0.00 31 1015.5
20260504223037 11 345 25.7 41.8 0.00 0.00 0.00 32 1015.5
20260504221559 11 345 29.0 40.2 0.00 0.00 0.00 34 1015.6
20260504220055 11 345 32.2 49.9 0.00 0.00 0.00 34 1015.8
20260504214538 11 345 32.2 56.3 0.00 0.00 0.00 33 1015.8
20260504213046 11 345 33.8 54.7 0.00 0.00 0.00 33 1015.9
20260504211548 11 345 35.4 54.7 0.00 0.00 0.00 32 1015.8
20260504210047 11 345 29.0 53.1 0.00 0.00 0.00 32 1015.7
20260504204541 11 345 33.8 54.7 0.00 0.00 0.00 32 1015.9
20260504203041 12 345 32.2 54.7 0.00 0.00 0.00 31 1015.6
20260504201550 11 345 27.4 51.5 0.00 0.00 0.00 34 1015.6
20260504200047 11 345 27.4 53.1 0.00 0.00 0.00 36 1015.6
20260504194544 11 345 37.0 48.3 0.00 0.00 0.00 35 1015.8
20260504193042 11 345 33.8 48.3 0.00 0.00 0.00 35 1015.8
20260504191541 11 345 33.8 43.5 0.00 0.00 0.00 36 1015.8
20260504190046 11 345 35.4 48.3 0.00 0.00 0.00 35 1015.7
20260504184546 11 360 38.6 53.1 0.00 0.00 0.00 37 1015.8
20260504183047 11 345 33.8 48.3 0.00 0.00 0.00 39 1015.7
20260504181545 11 345 32.2 48.3 0.00 0.00 0.00 38 1015.7
20260504180042 11 345 29.0 46.7 0.00 0.00 0.00 40 1015.8
20260504174539 11 345 27.4 46.7 0.00 0.00 0.00 40 1015.7
20260504173049 12 345 32.2 43.5 0.00 0.00 0.00 40 1015.6
20260504171548 11 345 29.0 41.8 0.00 0.00 0.00 40 1015.5